Location: Slanting_Bridge
(35.6330°N, 80.9830°W)
Time: 20:46:04
(UTC-04:00)

Hamsat - Visible Passes

Search period start: 26 March 2017 00:00
Search period end: 05 April 2017 00:00
Orbit: 585 x 619 km, 97.6° (Epoch: 25 March)

Date Brightness Start Highest point End Pass type
(mag) Time Alt. Az. Time Alt. Az. Time Alt. Az.
26 Mar ? 04:50:26 10° NE 04:53:55 24° E 04:55:37 19° SE visible
26 Mar ? 06:26:13 10° NNW 06:29:34 23° WNW 06:32:26 12° WSW visible
27 Mar ? 05:01:54 10° NNE 05:05:47 34° E 05:07:44 22° SE visible
27 Mar ? 06:38:29 10° NNW 06:41:15 17° WNW 06:44:03 10° WSW visible
28 Mar ? 05:13:30 10° NNE 05:17:36 47° E 05:19:50 24° SSE visible
28 Mar ? 06:51:03 10° NW 06:52:56 13° WNW 06:54:50 10° W visible
29 Mar ? 05:25:11 10° NNE 05:29:24 67° E 05:31:55 24° S visible
30 Mar ? 05:36:57 10° N 05:41:12 87° WNW 05:44:01 21° SSW visible
31 Mar ? 05:48:46 10° N 05:52:59 62° WNW 05:56:06 18° SSW visible
01 Apr ? 04:26:50 10° ENE 04:28:47 13° E 04:30:45 10° ESE visible
01 Apr ? 06:00:41 10° N 06:04:44 44° WNW 06:08:11 14° SW visible
02 Apr ? 04:37:45 10° NE 04:40:40 18° E 04:43:28 10° SE visible
02 Apr ? 06:12:40 10° N 06:16:28 32° WNW 06:20:16 10° SW visible
03 Apr ? 04:49:01 10° NE 04:52:32 24° E 04:55:32 12° SSE visible
03 Apr ? 06:24:45 10° NNW 06:28:11 24° WNW 06:31:37 10° WSW visible
04 Apr ? 05:00:29 10° NNE 05:04:22 33° E 05:07:36 14° SSE visible
04 Apr ? 06:37:00 10° NNW 06:39:52 18° WNW 06:42:45 10° WSW visible
